Weather History for Copenhagen, Denmark

Change the Weather History Date:

Sunday, October 7, 2012

  Actual Average Record
Temperature  
Mean Temperature 50 °F -  
Max Temperature 55 °F 52 °F 64 °F (2005)
Min Temperature 46 °F 41 °F 37 °F (2002)
Degree Days  
Heating Degree Days 14    
Moisture  
Dew Point 44 °F    
Average Humidity 78    
Maximum Humidity 93    
Minimum Humidity 58    
Precipitation  
Precipitation 0.00 in - - ()
Sea Level Pressure  
Sea Level Pressure 29.76 in    
Wind  
Wind Speed 15 mph ()    
Max Wind Speed 24 mph    
Max Gust Speed 32 mph    
Visibility 7.7 miles    
Events      
Averages and records for this station are not official NWS values.
T = Trace of Precipitation, MM = Missing Value Source: Averaged Metar Reports

Daily Weather History Graph

Daily Weather History Graph

Search for Another Location

Airport:

Trip Planner

Search our weather history database for the weather conditions in past years. The results will help you decide how hot, cold, wet, or windy it might be!

Date:

Astronomy

Oct. 07, 2012 Rise Set
Actual Time 7:24 AM CEST 6:28 PM CEST
Civil Twilight 6:47 AM CEST 7:05 PM CEST
Nautical Twilight 6:05 AM CEST 7:47 PM CEST
Astronomical Twilight 5:21 AM CEST 8:31 PM CEST
Moon 10:39 PM CEST (10/7) 2:36 PM CEST (10/7)
Length of Visible Light 12h 17m
Length of Day
11h 04m
Waning Gibbous, 58% of the Moon is Illuminated
Oct 7
Waning Gibbous
Oct 8
Last Quarter
Oct 15
New
Oct 22
First Quarter
Oct 29
Full

Hourly Weather History & Observations

Time (CEST) Temp. Windchill Dew Point Humidity Pressure Visibility Wind Dir Wind Speed Gust Speed Precip Events Conditions
12:20 AM 48.2 °F - 46.4 °F 93% 29.74 in - WSW 12.7 mph - N/A   Clear
12:50 AM 48.2 °F - 44.6 °F 87% 29.74 in - WSW 15.0 mph - N/A   Clear
1:20 AM 48.2 °F - 44.6 °F 87% 29.74 in - WSW 15.0 mph - N/A   Clear
1:50 AM 50.0 °F - 46.4 °F 87% 29.74 in 6.2 mi WSW 16.1 mph - N/A   Mostly Cloudy
2:00 AM 49 °F - 45 °F 83% 29.76 in 19 mi WSW 16.1 mph - -   Mostly Cloudy
2:20 AM 48.2 °F - 44.6 °F 87% 29.74 in 6.2 mi WSW 16.1 mph - N/A   Mostly Cloudy
2:50 AM 48.2 °F - 44.6 °F 87% 29.74 in 6.2 mi WSW 13.8 mph - N/A   Scattered Clouds
3:20 AM 48.2 °F - 44.6 °F 87% 29.74 in 6.2 mi WSW 12.7 mph - N/A   Partly Cloudy
3:50 AM 46.4 °F 40.7 °F 44.6 °F 93% 29.74 in 6.2 mi West 12.7 mph - N/A   Partly Cloudy
4:20 AM 46.4 °F 40.7 °F 42.8 °F 87% 29.74 in - West 12.7 mph - N/A   Clear
4:50 AM 46.4 °F 41.1 °F 42.8 °F 87% 29.74 in - West 11.5 mph - N/A   Clear
5:00 AM 47 °F - 43 °F 82% 29.75 in 19 mi West 12.7 mph - -  
5:20 AM 46.4 °F 40.7 °F 44.6 °F 93% 29.74 in - WSW 12.7 mph - N/A   Clear
5:50 AM 46.4 °F 41.1 °F 44.6 °F 93% 29.74 in - WSW 11.5 mph - N/A   Clear
6:20 AM 46.4 °F 40.1 °F 44.6 °F 93% 29.74 in 6.2 mi WSW 15.0 mph - N/A   Partly Cloudy
6:50 AM 46.4 °F 39.8 °F 42.8 °F 87% 29.74 in 6.2 mi WSW 16.1 mph - N/A   Partly Cloudy
7:20 AM 46.4 °F 39.8 °F 42.8 °F 87% 29.74 in 6.2 mi WSW 16.1 mph - N/A   Partly Cloudy
7:50 AM 46.4 °F 40.1 °F 42.8 °F 87% 29.74 in 6.2 mi WSW 15.0 mph - N/A   Partly Cloudy
8:00 AM 46 °F - 43 °F 85% 29.76 in 19 mi WSW 13.8 mph - -   Scattered Clouds
8:20 AM 46.4 °F 40.1 °F 42.8 °F 87% 29.74 in 6.2 mi WSW 15.0 mph - N/A   Partly Cloudy
8:50 AM 48.2 °F - 44.6 °F 87% 29.74 in 6.2 mi WSW 15.0 mph - N/A   Partly Cloudy
9:20 AM 48.2 °F - 44.6 °F 87% 29.74 in 6.2 mi WSW 16.1 mph - N/A   Partly Cloudy
9:50 AM 50.0 °F - 44.6 °F 82% 29.74 in 6.2 mi West 17.3 mph - N/A   Partly Cloudy
10:20 AM 51.8 °F - 44.6 °F 76% 29.74 in 6.2 mi West 17.3 mph - N/A   Scattered Clouds
10:50 AM 51.8 °F - 44.6 °F 76% 29.77 in 6.2 mi West 17.3 mph - N/A   Mostly Cloudy
11:00 AM 53 °F - 45 °F 66% 29.77 in 19 mi West 16.1 mph - -   Mostly Cloudy
11:20 AM 51.8 °F - 44.6 °F 76% 29.74 in 6.2 mi West 20.7 mph - N/A   Scattered Clouds
11:50 AM 53.6 °F - 42.8 °F 67% 29.74 in 6.2 mi West 20.7 mph - N/A   Mostly Cloudy
12:20 PM 53.6 °F - 42.8 °F 67% 29.74 in 6.2 mi West 20.7 mph 32.2 mph N/A   Mostly Cloudy
12:50 PM 53.6 °F - 42.8 °F 67% 29.74 in 6.2 mi West 21.9 mph - N/A   Mostly Cloudy
1:20 PM 53.6 °F - 42.8 °F 67% 29.74 in 6.2 mi West 19.6 mph - N/A   Mostly Cloudy
1:50 PM 53.6 °F - 42.8 °F 67% 29.74 in 6.2 mi West 21.9 mph - N/A   Mostly Cloudy
2:00 PM 53 °F - 43 °F 58% 29.77 in 25 mi West 21.9 mph - -   Partly Cloudy
2:20 PM 53.6 °F - 42.8 °F 67% 29.74 in 6.2 mi West 21.9 mph - N/A   Mostly Cloudy
2:50 PM 53.6 °F - 42.8 °F 67% 29.74 in 6.2 mi West 24.2 mph - N/A   Mostly Cloudy
3:20 PM 53.6 °F - 42.8 °F 67% 29.77 in 6.2 mi West 18.4 mph - N/A   Mostly Cloudy
3:50 PM 53.6 °F - 42.8 °F 67% 29.77 in 6.2 mi West 19.6 mph - N/A   Mostly Cloudy
4:20 PM 53.6 °F - 42.8 °F 67% 29.77 in 6.2 mi West 19.6 mph - N/A   Mostly Cloudy
4:50 PM 53.6 °F - 42.8 °F 67% 29.74 in 6.2 mi West 19.6 mph - N/A   Mostly Cloudy
5:00 PM 53 °F - 43 °F 59% 29.77 in 25 mi West 17.3 mph - -   Mostly Cloudy
5:20 PM 53.6 °F - 42.8 °F 67% 29.77 in 6.2 mi West 17.3 mph - N/A   Mostly Cloudy
5:50 PM 53.6 °F - 42.8 °F 67% 29.77 in 6.2 mi West 20.7 mph - N/A   Mostly Cloudy
6:20 PM 51.8 °F - 44.6 °F 76% 29.77 in 6.2 mi West 19.6 mph - N/A   Mostly Cloudy
6:50 PM 51.8 °F - 44.6 °F 76% 29.77 in 6.2 mi West 18.4 mph - N/A   Mostly Cloudy
7:20 PM 51.8 °F - 44.6 °F 76% 29.77 in 6.2 mi West 19.6 mph - N/A   Mostly Cloudy
7:50 PM 51.8 °F - 46.4 °F 82% 29.77 in 6.2 mi West 17.3 mph - N/A   Scattered Clouds
8:00 PM 51 °F - 46 °F 76% 29.80 in 16 mi West 16.1 mph - -   Partly Cloudy
8:20 PM 51.8 °F - 46.4 °F 82% 29.80 in 6.2 mi West 15.0 mph - N/A   Scattered Clouds
8:50 PM 51.8 °F - 44.6 °F 76% 29.80 in 6.2 mi West 15.0 mph - N/A   Scattered Clouds
9:20 PM 51.8 °F - 44.6 °F 76% 29.80 in 6.2 mi West 17.3 mph - N/A   Mostly Cloudy
9:50 PM 51.8 °F - 44.6 °F 76% 29.83 in 6.2 mi WNW 17.3 mph - N/A   Mostly Cloudy
10:20 PM 51.8 °F - 44.6 °F 76% 29.83 in 6.2 mi WNW 19.6 mph - N/A   Mostly Cloudy
10:50 PM 51.8 °F - 44.6 °F 76% 29.83 in 6.2 mi West 19.6 mph - N/A   Mostly Cloudy
11:00 PM 52 °F - 44 °F 65% 29.84 in 16 mi WNW 18.4 mph - -   Mostly Cloudy
11:20 PM 51.8 °F - 42.8 °F 71% 29.83 in 6.2 mi West 20.7 mph - N/A   Mostly Cloudy
11:50 PM 51.8 °F - 42.8 °F 71% 29.83 in 6.2 mi WNW 19.6 mph - N/A   Mostly Cloudy